This is the latest recevied weather packets stored in our database for station/object OE2ATN. If no packets are shown the sender has not sent any weather packets the latest 10 day(s).
| Time | Temp. | Humidity | Pressure | Rain* | Wind** | Luminosity | Snow |
|---|---|---|---|---|---|---|---|
| 1778033714 | 6.67° C | 59% | 1017.6 hPa | 0 mm | - | - | - |
| 1778033414 | 6.67° C | 57% | 1017.4 hPa | 0 mm | - | - | - |
| 1778033115 | 6.11° C | 57% | 1017.3 hPa | 0 mm | - | - | - |
| 1778032815 | 6.11° C | 61% | 1017.3 hPa | 0 mm | - | - | - |
| 1778032515 | 6.11° C | 67% | 1017.2 hPa | 0 mm | - | - | - |
| 1778032214 | 6.67° C | 65% | 1017.3 hPa | 0 mm | - | - | - |
| 1778031914 | 6.67° C | 64% | 1017.3 hPa | 0 mm | - | - | - |
| 1778031612 | 6.67° C | 64% | 1017.3 hPa | 0 mm | - | - | - |
| 1778031313 | 6.67° C | 63% | 1017.5 hPa | 0 mm | - | - | - |
| 1778031012 | 6.67° C | 64% | 1017.5 hPa | 0 mm | - | - | - |
| 1778030709 | 6.67° C | 66% | 1017.5 hPa | 0 mm | - | - | - |
| 1778030407 | 6.67° C | 66% | 1017.4 hPa | 0 mm | - | - | - |
| 1778030106 | 6.11° C | 68% | 1017.3 hPa | 0 mm | - | - | - |
| 1778029806 | 6.67° C | 68% | 1017.4 hPa | 0 mm | - | - | - |
| 1778029506 | 6.67° C | 67% | 1017.3 hPa | 0 mm | - | - | - |
| 1778029207 | 6.67° C | 68% | 1017.2 hPa | 0 mm | - | - | - |
| 1778028907 | 6.67° C | 69% | 1017.2 hPa | 0 mm | - | - | - |
| 1778028606 | 6.67° C | 71% | 1017.1 hPa | 0 mm | - | - | - |
| 1778028306 | 6.67° C | 74% | 1017.1 hPa | 0 mm | - | - | - |
| 1778028007 | 7.22° C | 75% | 1017.1 hPa | 0 mm | - | - | - |
| 1778027706 | 7.78° C | 74% | 1017.1 hPa | 0 mm | - | - | - |
| 1778027406 | 7.78° C | 74% | 1017.1 hPa | 0 mm | - | - | - |
| 1778027107 | 7.78° C | 74% | 1017.1 hPa | 0 mm | - | - | - |
| 1778026807 | 7.78° C | 74% | 1017.1 hPa | 0 mm | - | - | - |
| 1778026507 | 7.78° C | 74% | 1017.1 hPa | 0 mm | - | - | - |
* Rain latest hour (hover to see other rain measurements)
** Current wind speed in m/s (hover to see current wind gust speed)